[[{"header":{"parameterUnit":"m.s-1","parameterCategory":1,"la1":30.2991,"la2":30.254,"lo1":-89.0895,"lo2":-89.0444,"dy":0.0017,"dx":0.0017,"nx":28,"ny":28,"refTime":"2024-03-23T21:00:00:Z","depth":0,"parameterNumber":2,"parameterNumberName":"U-component_of_WINDS"},"data":[0,0,0,0,0,0,0,0,0,0,0,0,0,0,0,0,0,0,0,0,0,0,0,0,0,0,0,0,0,0,0,0,0,0,0,0,0,0,0,0,0,0,0,0,0,0,0,0,0,0,0,0,0,0,0,0,0,0,-5.9664,-5.9665,0,-5.9702,-5.9703,-5.9703,-5.9628,-5.9626,-5.9623,-5.9621,-5.9656,-5.9659,-5.9663,0,0,0,0,0,0,0,0,0,0,0,0,0,-5.9525,-5.9528,-5.9664,-5.9665,-5.9665,-5.9702,-5.9703,-5.9703,-5.9628,-5.9625,-5.9622,-5.962,-5.9655,-5.9659,-5.9663,0,0,0,0,0,0,0,0,0,0,0,0,0,-5.9576,-5.9529,-5.9664,-5.9632,-5.963,-5.9702,-5.9703,-5.9703,-5.9629,-5.9625,-5.9622,-5.9618,-5.9654,-5.9659,-5.9664,-5.9767,0,0,-5.9678,-5.968,0,0,0,0,0,0,0,0,-5.9573,-5.9581,-5.9637,-5.9635,-5.9632,-5.9657,-5.9666,-5.9724,-5.963,-5.9629,-5.9621,-5.9616,-5.9659,-5.9663,-5.9678,-5.9769,-5.977,-5.9679,-5.9682,-5.9684,-5.9685,0,0,0,0,0,0,0,-5.957,-5.9579,-5.9679,-5.9637,-5.9635,-5.9616,-5.9619,-5.9677,-5.9664,-5.9629,-5.9624,-5.9629,-5.9657,-5.9674,-5.9679,-5.9771,-5.9679,-5.9683,-5.9686,-5.9688,-5.9947,-5.9951,0,0,0,0,0,0,-5.9571,-5.9577,-5.9678,-5.968,-5.9593,-5.9621,-5.9625,-5.9652,-5.9663,-5.9662,-5.9633,-5.9626,-5.9668,-5.9673,-5.968,-5.98,-5.9684,-5.9688,-5.9691,-5.9943,-5.9948,-5.9953,0,0,0,0,0,0,-5.9568,-5.958,-5.9676,-5.9627,-5.9638,-5.9627,-5.9659,-5.9655,-5.9672,-5.9666,-5.9663,-5.9652,-5.9665,-5.9673,-5.9746,-5.98,-5.969,-5.9695,-5.9939,-5.9945,-5.995,-6.0043,0,0,0,0,0,0,-5.9564,-5.958,-5.9619,-5.9629,-5.9641,-5.9743,-5.9663,-5.9658,-5.9681,-5.9672,-5.9684,-5.9682,-5.9663,-5.9739,-5.9751,-5.9805,-5.9699,-5.9934,-5.9941,-5.9948,-6.0035,-6.0051,-6.0065,0,0,0,0,0,-5.956,-5.9643,-5.9622,-5.9634,-5.969,-5.9746,-5.9753,-5.9729,-5.9685,-5.9724,-5.9721,-5.9682,-5.9794,-5.9747,-5.976,-5.9816,-5.993,-5.9939,-5.9948,-6.0028,-6.0048,-6.0065,0,0,0,0,0,0,-5.9639,-5.9644,-5.962,-5.9709,-5.9728,-5.9733,-5.9781,-5.9752,-5.9782,-5.9773,-5.9742,-5.9745,-5.9824,-5.9828,-5.9776,-5.9917,-5.9854,-5.9866,-5.9911,-5.993,-5.9945,-5.994,-5.9703,0,0,0,0,0,-5.9667,-5.9713,-5.9715,-5.9793,-5.9804,-5.9792,-5.9815,-5.9796,-5.9814,-5.9821,-5.9822,-5.984,-5.9879,-5.9905,-5.9941,-6.0037,-6.0037,-6.0082,-6.0097,-6.011,-6.0119,-6.0168,-6.0188,-5.9982,-5.9982,-5.9982,0,0,-5.9725,-5.9733,-5.9764,-5.9809,-5.9821,-5.9868,-5.9798,-5.9851,-5.9885,-5.9828,-5.9896,-5.99,-5.9917,-6.0002,-6.0039,-6.0007,-6.0177,-6.0121,-6.0131,-6.0133,-6.018,-6.0199,-6.0216,-5.9988,-5.9987,-5.9986,0,0,-5.9853,-5.9866,-5.9931,-5.9946,-5.9966,-5.9958,-5.9974,-5.9985,-5.9985,-6.0054,-6.0012,-6.0053,-6.0121,-6.0135,-6.0151,-6.0289,-6.0253,-6.0302,-6.0379,-6.0428,-6.0444,-6.0458,-6.0505,-6.0522,-6.0312,-6.0312,-6.0312,0,-5.9921,-5.9991,-5.9969,-6.0025,-6.0046,-5.9999,-6.0065,-6.008,-6.0111,-6.0126,-6.0091,-6.0176,-6.0185,-6.0271,-6.0305,-6.0321,-6.0337,-6.0298,-6.0444,-6.0458,-6.0471,-6.0515,-6.0533,-6.0318,-6.0317,-6.0316,-6.0316,0,-6.0074,-6.0123,-6.0174,-6.0206,-6.0233,-6.0294,-6.028,-6.0311,-6.0291,-6.0286,-6.0357,-6.0367,-6.0403,-6.0424,-6.0404,-6.0508,-6.0487,-6.0449,-6.0385,-6.0496,-6.0537,-6.0554,-6.0326,-6.0324,-6.0322,-6.0321,0,0,-6.0248,-6.027,-6.0288,-6.0302,-6.0323,-6.036,-6.0419,-6.0457,-6.0482,-6.0506,-6.0553,-6.0614,-6.0579,-6.0598,-6.058,-6.0623,-6.0729,-6.0579,-6.0579,-6.0604,-6.0842,-6.0867,-6.0887,-6.0708,-6.0711,-6.0713,-6.0839,0,-6.0373,-6.0475,-6.0458,-6.0557,-6.0602,-6.056,-6.0611,-6.0629,-6.0628,-6.0665,-6.0663,-6.0705,-6.0657,-6.0668,-6.071,-6.0708,-6.0776,-6.0699,-6.0749,-6.0751,-6.0741,-6.0909,-6.0936,-6.1054,-6.0855,-6.0858,-6.086,0,-6.0532,-6.0563,-6.0666,-6.068,-6.0698,-6.0745,-6.0778,-6.0815,-6.0834,-6.083,-6.0853,-6.0828,-6.0886,-6.0825,-6.0903,-6.0851,-6.0872,-6.0875,-6.0878,-6.0878,-6.0809,-6.091,-6.1091,-6.1108,-6.0885,-6.0883,-6.0881,0,-6.0645,-6.0713,-6.0783,-6.0797,-6.0816,-6.0849,-6.0859,-6.0875,-6.0899,-6.0928,-6.0943,-6.0979,-6.0998,-6.1026,-6.101,-6.0968,-6.1091,-6.1029,-6.1087,-6.1088,-6.1111,-6.1109,-6.1294,-6.1132,-6.1131,-6.1131,-6.1131,0,-6.0784,-6.0848,-6.0834,-6.0877,-6.0948,-6.0929,-6.0999,-6.1003,-6.1019,-6.1061,-6.1029,-6.1069,-6.1048,-6.1087,-6.1076,-6.1142,-6.1151,-6.1148,-6.1143,-6.1149,-6.1149,-6.1158,-6.1148,-6.1136,-6.1135,-6.1134,-6.1133,0,-6.092,-6.0914,-6.0987,-6.1001,-6.1006,-6.1057,-6.1067,-6.1107,-6.1105,-6.1159,-6.117,-6.1166,-6.121,-6.1199,-6.1247,-6.124,-6.1322,-6.1309,-6.1315,-6.1311,-6.1368,-6.1362,-6.1563,-6.1587,-6.1412,-6.1414,-6.1415,0,-6.1007,-6.1055,-6.1074,-6.1101,-6.1113,-6.1157,-6.1182,-6.1166,-6.1192,-6.122,-6.1256,-6.1298,-6.133,-6.1402,-6.1402,-6.1439,-6.1424,-6.1493,-6.1429,-6.1433,-6.1421,-6.1417,-6.1421,-6.1503,-6.1505,-6.1507,-6.1509,0,-6.1161,-6.1156,-6.1193,-6.123,-6.1261,-6.1289,-6.1314,-6.1338,-6.1324,-6.1356,-6.1401,-6.1426,-6.1477,-6.1517,-6.1552,-6.156,-6.1531,-6.153,-6.1544,-6.1547,-6.1548,-6.1545,-6.1345,-6.1523,-6.1522,-6.1521,-6.152,-6.1519,-6.1272,-6.1313,-6.1333,-6.1376,-6.1394,-6.1419,-6.1456,-6.146,-6.1498,-6.1538,-6.1527,-6.1578,-6.1598,-6.1641,-6.1654,-6.1693,-6.1667,-6.1689,-6.1694,-6.1699,-6.1704,-6.1546,-6.17,-6.1699,-6.1699,-6.1699,-6.1698,0,-6.1421,-6.1433,-6.1473,-6.151,-6.1544,-6.1518,-6.1545,-6.1574,-6.162,-6.1641,-6.1674,-6.1727,-6.1767,-6.1772,-6.181,-6.184,-6.1828,-6.1851,-6.1846,-6.1848,-6.1727,-6.1709,-6.186,-6.186,-6.186,-6.186,-6.186,-6.186,-6.1503,-6.157,-6.1569,-6.1645,-6.1656,-6.1707,-6.1724,-6.1746,-6.1763,-6.1823,-6.1857,-6.1861,-6.1876,-6.1915,-6.1951,-6.1951,-6.1965,-6.1992,-6.1987,-6.1873,-6.1857,-6.1841,-6.1824,-6.1996,-6.1996,-6.2104,-6.2105,-6.2105]},{"header":{"parameterUnit":"m.s-1","parameterCategory":1,"la1":30.2991,"la2":30.254,"lo1":-89.0895,"lo2":-89.0444,"dy":0.0017,"dx":0.0017,"nx":28,"ny":28,"refTime":"2024-03-23T21:00:00:Z","depth":0,"parameterNumber":3,"parameterNumberName":"V-component_of_WINDS"},"data":[0,0,0,0,0,0,0,0,0,0,0,0,0,0,0,0,0,0,0,0,0,0,0,0,0,0,0,0,0,0,0,0,0,0,0,0,0,0,0,0,0,0,0,0,0,0,0,0,0,0,0,0,0,0,0,0,0,0,2.7565,2.7566,0,2.7598,2.7599,2.7599,2.7596,2.7596,2.7595,2.7595,2.7627,2.7628,2.7629,0,0,0,0,0,0,0,0,0,0,0,0,0,2.7499,2.75,2.7565,2.7566,2.7566,2.7598,2.7599,2.7599,2.7596,2.7596,2.7595,2.7594,2.7626,2.7628,2.763,0,0,0,0,0,0,0,0,0,0,0,0,0,2.753,2.7501,2.7565,2.7568,2.7569,2.7598,2.7599,2.7599,2.7596,2.7596,2.7595,2.7594,2.7626,2.7628,2.763,2.7657,0,0,2.7636,2.7637,0,0,0,0,0,0,0,0,2.7528,2.7532,2.7568,2.7568,2.7569,2.7592,2.7587,2.7619,2.7597,2.7586,2.7595,2.7594,2.7616,2.7619,2.7626,2.7659,2.766,2.7636,2.7637,2.7638,2.7639,0,0,0,0,0,0,0,2.7526,2.7531,2.7578,2.7568,2.7569,2.7568,2.7572,2.7593,2.7605,2.7587,2.7587,2.7591,2.7616,2.7625,2.7627,2.766,2.7636,2.7638,2.7639,2.764,2.772,2.7721,0,0,0,0,0,0,2.7523,2.7529,2.7577,2.7579,2.7546,2.757,2.7574,2.7586,2.7604,2.7607,2.7591,2.7591,2.7621,2.7625,2.7628,2.7663,2.7638,2.764,2.7641,2.7719,2.772,2.7721,0,0,0,0,0,0,2.7522,2.7527,2.7576,2.7554,2.756,2.7572,2.7585,2.7587,2.7595,2.7608,2.761,2.7598,2.7621,2.7625,2.7651,2.7664,2.7641,2.7643,2.7718,2.7719,2.772,2.7733,0,0,0,0,0,0,2.752,2.7527,2.7537,2.7554,2.7561,2.7598,2.7586,2.7588,2.7599,2.7598,2.7615,2.7617,2.7621,2.7648,2.7653,2.7667,2.7644,2.7716,2.7718,2.772,2.7731,2.7735,2.7737,0,0,0,0,0,2.7517,2.7538,2.7538,2.7544,2.7575,2.7599,2.7603,2.7608,2.76,2.7611,2.7619,2.7616,2.7662,2.765,2.7656,2.7671,2.7716,2.7718,2.772,2.773,2.7734,2.7737,0,0,0,0,0,0,2.7521,2.7541,2.754,2.7567,2.7582,2.7598,2.7611,2.7611,2.7627,2.7626,2.7631,2.7634,2.766,2.7668,2.7654,2.77,2.7688,2.7691,2.7694,2.7698,2.7701,2.7698,2.7646,0,0,0,0,0,2.7525,2.7543,2.7559,2.7582,2.7589,2.7599,2.761,2.7613,2.7627,2.7633,2.7643,2.7657,2.7675,2.7687,2.7704,2.7732,2.7737,2.7746,2.7749,2.7751,2.7754,2.7772,2.7776,2.7728,2.7728,2.7728,0,0,2.7534,2.7547,2.7557,2.7583,2.7594,2.7613,2.7604,2.7624,2.7638,2.7636,2.7661,2.7669,2.7685,2.7713,2.7726,2.772,2.7769,2.7754,2.7755,2.7757,2.7775,2.7779,2.7783,2.7729,2.7729,2.7729,0,0,2.7559,2.757,2.7591,2.7603,2.7621,2.7628,2.7634,2.7651,2.7657,2.7682,2.7682,2.7699,2.7729,2.7741,2.7751,2.7784,2.7782,2.779,2.7805,2.7823,2.7827,2.783,2.7844,2.7848,2.7792,2.7792,2.7792,0,2.7567,2.7596,2.7602,2.7623,2.7635,2.7635,2.7657,2.7668,2.769,2.7699,2.7692,2.7732,2.7743,2.7775,2.7783,2.7791,2.7798,2.7788,2.7826,2.7829,2.7833,2.7845,2.785,2.7793,2.7793,2.7793,2.7793,0,2.7606,2.7626,2.7641,2.7664,2.7678,2.7699,2.7709,2.7722,2.7724,2.7732,2.7759,2.7772,2.7793,2.7801,2.7802,2.7834,2.783,2.7825,2.7813,2.7838,2.785,2.7855,2.7794,2.7794,2.7794,2.7794,0,0,2.7633,2.7661,2.7667,2.7679,2.77,2.7715,2.7737,2.7759,2.7771,2.7786,2.7806,2.7833,2.7829,2.784,2.7844,2.7859,2.7887,2.7852,2.7852,2.7859,2.7924,2.7929,2.7934,2.7886,2.7887,2.7887,2.7923,0,2.7662,2.7701,2.7709,2.7743,2.7763,2.7765,2.7784,2.7799,2.7808,2.7826,2.7835,2.7855,2.7847,2.7855,2.787,2.788,2.79,2.7877,2.7904,2.7905,2.7901,2.794,2.7945,2.7978,2.7928,2.7929,2.7929,0,2.77,2.7719,2.7756,2.7777,2.7785,2.7803,2.7824,2.7841,2.7859,2.7865,2.7879,2.7881,2.7905,2.7892,2.7926,2.791,2.7922,2.7929,2.793,2.7933,2.7919,2.7946,2.7988,2.7994,2.7936,2.7936,2.7935,0,2.7718,2.7752,2.778,2.779,2.7814,2.7827,2.7837,2.7855,2.7868,2.7887,2.7896,2.7917,2.7928,2.7944,2.7953,2.7942,2.7986,2.7974,2.7992,2.7992,2.8001,2.8001,2.8047,2.8007,2.8007,2.8007,2.8007,0,2.775,2.7773,2.7789,2.7806,2.7832,2.7841,2.7867,2.7877,2.7893,2.7912,2.7914,2.7932,2.7942,2.7961,2.7968,2.7996,2.8,2.8006,2.8007,2.8006,2.8006,2.8014,2.8012,2.8008,2.8008,2.8008,2.8007,0,2.7774,2.7786,2.7816,2.7838,2.7844,2.7863,2.7881,2.7898,2.7907,2.7932,2.7938,2.7953,2.7976,2.7986,2.8014,2.8019,2.8051,2.805,2.8046,2.8046,2.8065,2.8063,2.8119,2.8128,2.8081,2.8081,2.8081,0,2.7794,2.7812,2.7837,2.7851,2.7862,2.7884,2.7898,2.7908,2.7923,2.7946,2.796,2.7984,2.8004,2.8042,2.8055,2.8077,2.8077,2.8095,2.808,2.808,2.8079,2.8079,2.8081,2.8098,2.8099,2.8099,2.8099,0,2.7829,2.7834,2.7855,2.7879,2.7897,2.7915,2.7934,2.7945,2.7957,2.7974,2.7999,2.8014,2.8045,2.8069,2.8092,2.8103,2.8104,2.8104,2.811,2.8109,2.8106,2.811,2.8054,2.8103,2.8102,2.8102,2.8102,2.8102,2.7853,2.787,2.7891,2.7915,2.793,2.7948,2.7965,2.7978,2.7999,2.8025,2.803,2.8057,2.8076,2.8108,2.812,2.8142,2.8137,2.8145,2.8147,2.8149,2.8151,2.8102,2.8146,2.8146,2.8146,2.8146,2.8145,0,2.7889,2.7903,2.7925,2.7952,2.7971,2.7971,2.7992,2.8008,2.8032,2.8051,2.8071,2.81,2.8124,2.814,2.8165,2.8179,2.818,2.8185,2.8185,2.8188,2.8153,2.8146,2.8184,2.8184,2.8184,2.8184,2.8184,2.8184,2.791,2.794,2.7948,2.7987,2.8,2.8028,2.804,2.8057,2.8072,2.8105,2.8126,2.8137,2.8154,2.8181,2.8203,2.8207,2.8217,2.8222,2.8226,2.8194,2.819,2.8186,2.818,2.8224,2.8224,2.8259,2.826,2.826]}]]